Location: Huntsville
(41.2590°N, 111.7678°W)
Time: 00:55:27
(UTC+00:00)

Courier 1B Rocket - Pass Details

Date: 21 June 2021
Orbit: 920 x 1202 km, 28.2° (Epoch: 31 July)

Event Time Altitude Azimuth Distance (km) Brightness Sun altitude
Rises 23:36:36 0° 202° (SSW) 3,966 8.4 36.0°
Reaches altitude 10° 23:42:21 10° 168° (SSE) 2,930 7.5 34.9°
Maximum altitude 23:43:52 11° 155° (SSE) 2,855 7.3 34.6°
Drops below altitude 10° 23:45:22 10° 143° (SE) 2,886 7.2 34.3°
Sets 23:50:48 0° 108° (ESE) 3,757 7.6 33.3°
